Notices

What's New in latest Release from April 7th, 2021:

- Updated Glossary, including Speed of Maximum Gust, and Total Hourly Precipitation

- Updated national and regional climate services offices contacts and prices information

- Addition of station inventory lists for 1981-2010, 1971-2000, and 1961-1990 Normals.

If you haven't already, please take our survey and provide feedback about our website: https://eccc.sondage-survey.ca/f/LanguageSelection.aspx?s=442ca660-fcf1-47c0-95a9-59707d6fd709

Hourly Data Report for November 07, 2017

VICTORIA UNIVERSITY CS
BRITISH COLUMBIA

48°27'25.200" N
123°18'16.600" W
60.10 m
1018598
71783
WYJ

Download Data

Hourly Data (November 2017)
Hourly Data Report for November 7, 2017
TIME
LST
Temp Definition
°C
Dew Point Definition
°C
Rel Hum Definition
%
Precip. Amount Definition
mm

Wind Dir Definition
10's deg

Wind Spd Definition
km/h
Visibility Definition
km
Stn Press Definition
kPa
Hmdx Definition


Wind Chill Definition


Weather Definition


00:00 5.4 1.5 76 0.0 8 4   101.83     LegendNANA
01:00 5.1 0.5 72 0.0 8 5   101.82     LegendNANA
02:00 4.5 -0.2 71 0.0 8 5   101.81     LegendNANA
03:00 3.7 -0.8 73 0.0 5 2   101.76     LegendNANA
04:00 3.4 -0.6 75 0.0 8 2   101.69     LegendNANA
05:00 3.9 -0.8 71 0.0 9 6   101.69     LegendNANA
06:00 4.2 -1.3 67 0.0 7 6   101.62     LegendNANA
07:00 4.4 -1.2 67 0.0 8 6   101.60     LegendNANA
08:00 4.6 -1.6 64 0.0 8 7   101.52     LegendNANA
09:00 4.9 -1.8 62 0.0 7 7   101.53     LegendNANA
10:00 5.7 -1.1 61 0.0 8 6   101.46     LegendNANA
11:00 6.2 -1.6 57 0.0 7 7   101.40     LegendNANA
12:00 6.8 -1.7 54 0.0 7 7   101.33     LegendNANA
13:00 7.5 -2.0 51 0.0 7 8   101.25     LegendNANA
14:00 7.6 -1.2 53 0.0 7 7   101.17     LegendNANA
15:00 7.5 -0.8 55 0.0 8 5   101.14     LegendNANA
16:00 7.4 -0.9 56 0.0 5 6   101.10     LegendNANA
17:00 6.9 -1.0 57 0.0 6 5   101.02     LegendNANA
18:00 6.8 -1.2 57 0.0 5 4   100.98     LegendNANA
19:00 6.8 -0.9 58 0.0 4 4   100.95     LegendNANA
20:00 7.0 -0.8 57 0.0 4 5   100.88     LegendNANA
21:00 7.1 -0.6 58 0.0 3 7   100.85     LegendNANA
22:00 6.7 -0.4 60 0.0 4 3   100.84     LegendNANA
23:00 7.0 0.0 61 0.0 2 4   100.81     LegendNANA

Notes on Data Quality.

Legend

  • E = Estimated
  • M = Missing
  • NA = Not Available*
  • [empty] = Indicates an unobserved value
Date modified: